SL-16 DEB, 29100

Orbit data source: Space-Track

SL-16 DEB, 29100 is space debris in LEO originally from a launch on Fri, 26 Mar 1993 UTC launched from the Tyuratam Missile And Space Complex (TTMTR). Debris objects in space refer to the collection of defunct objects orbiting the Earth. Examples of debris include non-operational satellites, rocket bodies, and fragments generated from explosions, collisions, or faulty payload assembly.

Loading next visibility...
Identifier
29100, 1993-016AP
Orbit
LEO
Country
Flag of CISCIS
Related business
Manufacturer
Unknown
Mission
Spacecraft
Bus & Motor
Unknown
Mass
Unknown
Launch date (UTC)
1993-03-26 (33 years ago)
Launch vehicle
Unknown
Launch site
Tyuratam Missile And Space Complex (TTMTR)
Object type
Payload
Rocket body
Debris
Shape & HBR
Unknown shape, 0.1 m
Radar Cross Section
Small (<0.1 m²)

Expand to show TLE details & history
Last TLE update: 1 day ago

TLE from 1 day ago
0 SL-16 DEB
1 29100U 93016AP  25310.37120165  .00000786  00000-0  44659-3 0  9999
2 29100  70.7292 185.0579 0070743  42.9661 317.6953 14.11863526199960
Epoch: 2025-11-06T08:54Z
TLE epoch observation values (Epoch: 2025-11-06T08:54:31.822Z)
Latitude
0.00002°
Longitude
5.59484°
Altitude
817.707 km
Speed
7.464 km/s
True Right ascension
12h 20m 13s
True Declination
0° 00' 00"
Sunlit
Object was in daylight at epoch
Visualization orbit readout
Latitude
Unknown
Longitude
Unknown
Altitude
Unknown
Speed
Unknown
Apparent Right ascension
Unknown
Apparent Declination
Unknown
Sunlit
N/A
Visualization observer readout
Local Sidereal Time
07:26:47
Azimuth
Unknown
Elevation
Unknown
Doppler factor
Unknown
Orbital elements
Apogee altitude
902.097 km
Perigee altitude
799.816 km
Semi-major axis
7,229.093 km
Eccentricity
0.00707
Inclination
70.7292°
RAAN
185.0579°
Arg. of periapsis
42.9661°
True anomaly
317.14609°
Mean anomaly
317.6953°
Eccentric anomaly
317.42105°
Mean motion
3.53116 °/min
Orbital period
101.95 mins
BSTAR
0.00044659
Loading maneuver chart data...
Computing Atmospheric mass density...
Loading historical data...
Loading historical data...
Loading historical data...
Loading historical data...
Loading historical data...
Loading historical data...
Loading historical data...

Documentation

Showing up to 5 results
|